GFSFLT1_con_mlcape_204.txt.gz
CAPE
583 594 1109 846 563 226 15 21 66 41 45 145 0 0 0 0 0 0 0 0 7 6 20 31 30 33 34 35 41 36 38 38 31
981 648 742 1039 835 371 26 11 7 46 150 300 0 0 0 0 0 0 0 10 12 25 3 23 11 31 31 19 29 23 25 27 31
1393 880 635 828 1033 619 243 52 23 33 175 6 0 0 0 0 0 0 0 3 9 18 6 17 12 15 27 24 23 12 14 6 8
1457 1355 897 656 917 932 648 186 48 5 184 104 14 0 0 0 0 0 0 0 16 12 8 3 12 18 28 10 27 10 12 15 13
1553 1421 1379 1039 970 1111 993 570 100 67 54 113 0 0 0 0 0 0 0 0 4 6 6 8 6 18 19 5 9 16 7 18 11
1343 1472 1306 1354 1118 1143 1020 866 90 47 73 61 109 0 0 0 0 0 41 3 3 4 2 9 4 10 7 10 23 23 17 13 28
737 1187 1308 1008 1216 1007 975 958 215 41 0 21 95 0 0 0 0 11 83 45 4 1 5 8 3 11 25 17 7 15 16 11 23
784 911 1293 1264 997 998 962 842 455 55 2 0 0 0 0 0 5 33 88 55 27 1 2 3 9 12 13 15 15 10 9 24 21
816 636 582 956 1126 873 569 564 330 144 51 9 0 0 0 1 7 38 86 73 53 14 8 7 13 10 16 12 20 17 13 21 16
770 717 613 519 604 788 619 317 222 146 12 3 1 15 0 0 2 24 35 60 37 37 6 11 14 11 15 15 22 12 8 5 16
601 634 549 357 210 217 485 365 211 114 29 0 0 0 0 0 8 24 44 58 39 48 4 5 8 24 12 11 10 16 5 16 17
568 403 234 30 174 99 248 251 136 119 54 1 0 0 0 0 2 31 32 40 40 43 10 4 6 38 11 11 9 16 12 14 5
492 433 406 251 343 286 314 250 135 60 79 26 9 2 0 0 2 32 35 16 2 25 34 21 26 48 15 18 2 10 14 16 15
520 579 598 467 386 334 358 251 238 89 58 26 8 1 0 0 0 14 18 0 0 0 16 16 8 43 32 41 13 18 15 17 19
407 557 704 553 480 326 257 246 94 40 34 72 0 0 0 3 1 62 0 0 0 0 18 10 9 32 16 37 33 27 23 13 24
151 469 453 578 514 334 218 121 161 43 10 0 1 0 0 2 1 1 0 12 1 15 12 10 16 13 18 21 37 46 29 5 24
179 423 603 603 630 311 226 136 118 27 2 12 6 2 2 1 1 0 0 7 13 12 18 13 15 11 6 2 10 41 31 43 24
60 343 599 742 752 517 279 190 106 71 5 0 28 5 7 0 1 0 2 1 1 3 4 5 2 2 0 0 0 7 0 29 56
91 243 556 666 637 578 439 256 93 100 43 0 0 0 0 0 2 2 2 2 0 1 1 1 1 0 0 0 11 9 7 7 18
289 263 492 727 637 506 489 297 216 121 6 0 0 0 0 0 0 0 1 2 3 2 2 2 1 1 0 1 1 2 6 0 1

GFSFLT1_con_mlcape_207.txt.gz
CAPE
498 672 1310 992 569 189 81 111 116 79 180 0 0 0 0 0 0 0 1 6 23 9 18 5 28 31 19 23 19 28 23 17 14
903 631 931 1000 804 390 114 56 32 38 135 11 0 0 0 0 0 0 1 3 17 6 11 12 27 28 35 27 29 26 25 19 17
1357 968 842 880 1164 739 298 117 13 134 448 0 0 0 0 0 0 0 0 6 0 7 3 11 19 29 20 24 31 34 29 19 6
1751 1423 1048 861 1227 1002 721 314 53 43 181 17 0 0 0 0 0 0 3 3 10 6 4 13 22 16 23 25 24 31 26 18 14
1452 1300 1267 1119 991 1059 974 476 291 33 89 95 92 0 0 0 0 0 1 5 6 2 7 13 16 19 14 17 7 28 31 21 23
1235 1347 1248 1033 1150 1157 1049 747 311 283 58 73 65 0 0 0 0 8 9 5 5 4 6 9 14 13 13 11 20 26 17 23 13
1147 971 1167 1160 976 1011 1125 1102 439 95 109 57 148 25 0 0 1 10 55 32 3 5 6 5 10 18 19 15 14 15 25 24 12
1420 1315 1014 1364 1102 1022 1082 1053 814 224 172 102 113 59 0 0 2 22 75 65 10 4 1 9 5 14 12 18 10 20 23 17 19
1410 1220 1000 1002 1379 1286 1234 1029 989 390 231 175 53 97 10 7 11 29 38 97 35 5 2 11 12 4 10 10 16 15 25 16 14
1206 1261 1113 906 826 993 1153 1074 673 441 270 143 100 85 58 29 29 16 28 33 59 6 3 5 10 10 4 14 17 18 18 17 14
1026 729 862 1071 1029 826 719 801 748 383 271 144 33 90 142 50 72 15 20 34 62 43 8 2 34 19 9 6 8 16 17 17 14
982 810 810 967 1098 876 636 408 477 434 303 173 0 0 27 82 95 2 30 33 73 60 25 5 55 12 17 13 8 6 17 7 12
825 805 775 795 532 463 343 310 144 322 260 199 45 2 2 105 117 47 54 35 31 36 23 42 49 42 42 0 0 4 13 13 9
460 578 760 760 661 521 363 322 271 173 88 88 59 66 36 53 76 50 25 7 11 35 36 24 41 45 54 46 35 4 7 15 12
45 312 570 710 591 558 497 373 215 147 59 43 10 4 15 51 74 41 5 31 29 36 26 15 46 29 26 16 38 22 7 23 12
29 107 285 462 601 575 470 338 166 72 58 7 0 0 4 23 21 2 3 17 38 60 24 24 29 23 13 38 55 76 32 29 8
1 35 171 394 503 611 584 512 243 112 29 2 0 0 2 1 1 1 1 17 20 43 42 25 15 8 14 13 24 33 32 19 20
38 19 21 197 402 536 617 646 440 180 48 31 20 0 4 0 0 2 1 1 0 0 4 5 4 7 13 4 0 2 4 32 49
77 156 109 103 277 615 630 578 599 383 107 2 0 0 0 0 0 3 3 2 1 2 2 2 1 1 0 0 8 14 5 6 23
247 241 233 202 230 431 605 571 468 462 232 104 0 0 0 0 0 1 2 3 2 3 3 3 2 0 0 2 2 18 4 1 14

GFSFLT1_con_mlcape_210.txt.gz
CAPE
463 630 1426 1128 583 228 115 250 209 172 106 0 0 0 0 0 0 3 3 25 1 9 3 8 14 9 17 20 18 16 9 11 16
944 685 1359 1276 866 406 132 104 110 85 261 0 0 0 0 0 0 1 6 9 5 3 7 1 7 13 14 20 14 13 19 13 17
1511 1059 861 1161 1236 851 332 142 75 234 485 3 0 0 0 0 0 3 13 3 4 4 9 11 3 9 20 20 9 9 13 15 15
1502 1593 1147 1011 1305 1117 819 340 96 283 541 26 0 0 0 0 0 5 17 0 6 5 2 3 7 11 13 15 10 10 15 19 3
951 1166 1396 1091 1035 1363 1159 860 338 69 318 300 128 0 0 1 0 23 0 1 0 1 0 4 13 8 15 14 16 10 11 18 16
1298 1097 1186 1345 999 1118 1211 916 785 382 132 321 270 15 6 3 11 43 8 10 5 3 4 8 7 12 17 12 12 12 10 13 15
1044 1045 904 1087 1310 1064 965 1113 735 468 255 108 133 55 31 12 12 23 17 48 7 6 2 8 7 8 15 11 10 12 8 13 13
1143 1124 1153 967 1053 968 880 979 940 610 255 244 174 148 96 56 27 21 0 86 6 5 4 1 9 10 13 16 14 17 15 15 15
995 1000 1043 949 798 506 582 1025 933 814 570 327 199 110 88 97 69 49 0 41 76 4 8 5 8 9 12 17 18 12 12 12 11
993 1048 1098 1116 1039 980 696 780 729 613 495 375 277 165 89 109 95 139 3 14 37 30 34 11 9 13 10 14 15 13 9 8 9
1311 1143 1232 1117 1147 1139 997 629 576 540 546 427 312 275 82 133 213 153 2 11 25 55 39 15 15 12 10 9 7 12 8 8 14
1285 1206 1305 1244 1066 1219 1160 860 442 390 520 594 451 297 150 191 218 212 6 0 15 49 40 34 37 9 17 0 0 17 4 2 5
807 1035 995 1272 1157 1206 1252 832 315 480 381 495 486 343 131 110 326 212 23 40 35 17 48 49 34 24 5 0 0 15 10 2 5
78 290 632 695 892 1145 1144 1007 557 495 455 611 592 411 258 211 292 148 89 67 20 21 33 5 4 31 30 37 29 9 41 4 0
28 87 301 454 560 681 900 942 836 733 264 191 432 440 370 343 311 220 66 8 3 4 47 30 38 13 6 14 33 35 24 28 0
20 33 97 174 593 760 701 722 746 554 434 213 55 12 38 116 210 177 16 0 12 29 85 62 33 23 3 5 63 57 72 52 7
29 82 57 51 110 401 613 635 636 450 351 309 34 3 1 1 1 3 3 6 17 42 56 59 19 12 38 18 1 1 41 50 29
32 96 177 93 69 144 387 631 793 621 254 430 210 1 1 0 2 0 1 4 0 0 2 4 6 23 37 37 17 6 7 49 50
37 154 312 396 239 149 193 521 663 924 417 615 399 219 9 1 0 3 2 1 1 1 3 4 4 2 3 3 1 8 5 2 28
69 132 261 335 297 259 239 511 631 886 645 551 477 450 260 183 1 0 3 3 3 3 4 3 3 2 2 6 22 23 16 40 26

GFSFLT1_con_mlcape_216.txt.gz
CAPE
559 764 1270 1144 611 275 327 408 331 312 22 0 0 0 0 0 0 0 0 0 1 4 7 0 12 6 18 16 18 19 3 9 4
1074 674 767 1241 907 390 151 242 344 233 307 0 0 0 0 0 0 3 0 0 1 6 3 4 1 7 7 14 21 13 2 4 5
1141 999 922 1333 1205 695 332 151 243 244 249 248 0 0 0 0 5 2 0 0 0 5 1 13 1 6 5 6 12 5 8 18 14
1403 1317 1365 1133 1291 1165 782 397 165 124 352 581 10 0 0 0 1 7 0 0 0 2 0 13 11 11 5 16 2 10 11 4 16
902 1181 1267 1171 1218 1190 1243 884 474 188 348 687 123 1 0 0 0 15 1 0 0 0 3 1 9 17 7 7 2 2 4 8 10
1166 852 659 806 998 1205 1087 1130 880 530 186 486 352 157 0 0 6 17 7 0 0 0 0 0 7 18 8 11 7 6 6 5 8
855 990 940 864 798 734 879 918 803 706 392 89 109 86 0 6 27 21 17 5 0 0 0 0 0 10 12 11 7 5 9 4 10
897 635 827 776 804 524 567 657 796 618 392 222 160 41 16 23 41 44 28 16 1 0 0 0 0 7 11 13 8 7 7 7 11
785 848 765 395 547 429 504 574 643 531 509 309 262 141 79 37 37 28 33 27 17 0 0 0 1 0 4 10 7 3 4 5 12
769 852 891 784 517 173 0 197 627 681 560 550 316 185 131 49 40 32 26 20 43 6 9 0 1 0 0 0 3 2 0 4 6
93 324 667 735 704 471 422 620 540 458 359 216 168 167 110 40 37 43 18 15 34 66 47 22 2 0 0 0 0 0 1 4 4
0 12 9 130 691 602 533 505 400 424 335 318 184 134 127 134 70 26 17 3 0 28 84 36 30 13 0 0 0 0 1 1 1
0 0 3 17 31 474 654 596 445 311 244 260 258 181 210 174 190 156 68 1 0 0 33 36 72 29 5 0 0 0 0 1 2
0 0 0 15 52 95 257 333 496 472 339 245 248 263 289 278 189 250 143 15 0 0 1 10 30 18 39 17 2 0 7 0 2
0 0 0 0 0 35 173 114 255 378 330 314 221 209 282 271 170 198 146 63 11 2 0 2 1 1 27 25 34 25 21 22 9
0 0 0 0 14 15 46 169 280 263 379 331 204 142 115 118 137 177 154 71 12 5 2 1 2 4 22 35 30 17 48 54 48
0 0 0 0 0 2 62 40 119 281 418 348 232 84 49 0 13 142 136 73 20 0 0 11 15 4 13 2 0 5 28 46 47
0 0 0 0 0 19 49 144 115 160 365 430 308 71 81 0 1 1 41 16 1 0 0 0 3 10 0 14 0 5 16 26 62
0 0 0 0 0 0 44 95 124 137 167 323 426 172 63 31 0 2 2 0 0 0 0 0 0 0 5 5 0 2 16 24 29
0 0 0 0 0 13 58 71 120 120 124 181 239 332 201 3 0 0 2 3 2 1 1 1 1 0 0 6 7 13 8 25 48

GFSFLT1_con_mlcape_219.txt.gz
CAPE
620 763 1164 1138 703 263 285 316 265 294 3 0 0 0 0 0 0 0 0 0 1 10 1 14 10 15 15 15 7 7 14 9 9
1268 829 704 1329 1109 589 290 342 366 299 218 1 0 0 0 0 0 0 0 0 0 2 5 1 4 9 9 2 13 10 18 11 15
1486 1218 1056 917 1316 1069 574 334 393 423 379 328 0 0 0 0 0 0 0 0 0 0 4 2 7 5 13 8 11 6 6 4 11
1552 1447 1207 1272 1312 1342 1032 640 421 406 394 477 255 0 0 0 0 0 0 0 0 0 1 0 12 5 4 15 7 7 8 10 9
1480 1184 1190 1583 1416 1381 1293 1091 793 489 318 569 604 14 0 0 0 0 0 0 0 0 0 1 10 1 2 15 9 7 4 4 23
632 731 693 761 1029 932 1193 1205 1129 858 521 434 679 174 0 0 0 0 6 8 1 0 0 0 0 4 7 9 6 1 1 14 13
946 814 855 852 650 562 654 1057 1003 1007 649 320 483 349 36 0 0 1 17 21 8 0 0 0 0 1 2 6 2 5 3 11 11
448 553 604 582 701 691 502 522 723 681 597 410 194 133 75 4 3 18 26 29 24 2 0 0 0 0 0 3 3 2 5 16 13
17 190 445 444 512 477 433 470 407 381 646 507 304 208 172 71 23 47 39 47 36 10 1 0 0 0 1 0 0 1 4 9 10
0 1 2 84 313 310 370 225 77 504 653 509 323 207 185 90 30 58 75 33 79 27 0 0 0 0 0 0 0 0 0 3 1
0 0 0 0 0 116 242 116 22 9 252 330 290 286 263 194 63 61 132 52 27 58 29 8 1 0 0 0 0 0 0 0 2
0 0 0 0 0 21 92 290 229 260 325 304 212 110 229 215 96 69 43 64 60 107 95 50 19 4 0 0 0 0 0 0 2
0 0 0 0 0 0 26 119 220 211 166 240 243 166 93 95 96 62 44 82 59 76 100 73 52 26 4 0 0 0 0 0 0
0 0 0 0 0 0 0 18 135 222 210 240 237 248 189 119 103 62 49 16 5 8 88 60 66 55 31 4 0 0 0 0 0
0 0 0 0 0 0 0 0 21 114 185 182 238 200 159 143 158 159 86 14 2 0 5 17 18 10 64 42 12 0 0 0 12
0 0 0 0 0 0 0 0 0 31 92 248 213 131 70 93 134 96 106 56 12 0 2 0 0 0 24 24 23 10 15 3 13
0 0 0 0 0 0 0 0 14 37 138 152 215 143 93 23 3 64 104 108 37 4 3 1 0 0 1 0 3 6 21 18 15
0 0 0 0 0 0 0 0 2 7 56 140 180 105 60 0 1 0 0 47 69 24 4 0 0 0 0 0 0 0 0 27 23
0 0 0 0 0 0 0 8 2 29 38 94 152 137 91 61 0 1 1 0 33 16 1 0 0 0 0 0 0 0 0 8 30
0 0 0 0 0 0 0 0 0 0 38 56 106 150 113 39 16 2 0 2 1 0 1 0 0 0 0 0 0 0 0 15 50

GFSFLT1_con_mlcape_222.txt.gz
CAPE
788 684 1215 1337 985 573 578 597 479 345 3 0 0 0 0 0 0 0 0 0 10 4 19 12 13 9 8 9 8 9 18 16 5
1256 1077 768 1272 1311 1041 592 597 544 504 328 9 0 0 0 0 0 0 0 0 0 2 5 4 7 5 2 10 5 7 18 3 7
1501 1215 1296 1057 1130 1364 1061 631 551 548 448 361 17 0 0 0 0 0 0 0 0 0 2 9 0 8 12 17 15 6 12 13 11
1402 1564 1378 1219 1117 1348 1371 1021 650 562 541 478 430 7 0 0 0 0 0 0 0 0 0 2 4 1 7 18 8 1 10 6 8
741 519 916 954 1226 1406 1366 1340 991 769 612 526 499 329 0 0 0 0 0 0 4 0 0 0 5 0 13 9 2 3 6 9 24
417 923 765 485 363 697 1032 1152 1254 1140 836 549 348 643 11 0 0 0 0 2 10 2 0 0 0 1 11 5 5 1 2 6 28
104 160 200 547 693 595 541 495 786 1066 903 763 450 681 134 0 0 0 0 14 22 14 5 0 0 3 7 2 2 0 0 9 13
11 0 0 10 190 371 512 496 494 628 710 662 508 388 159 57 1 0 0 33 125 20 7 1 0 0 3 1 2 0 0 0 20
0 0 0 0 0 14 223 332 368 423 417 460 456 325 162 126 58 6 50 117 204 102 14 4 0 0 2 4 1 0 0 0 8
0 0 0 0 0 0 0 114 313 386 399 466 319 298 240 130 91 21 58 219 170 164 49 11 3 0 5 4 2 0 0 0 0
0 0 0 0 0 0 1 0 49 79 113 323 509 378 223 168 55 32 110 209 258 212 175 58 11 2 6 1 1 0 0 0 0
0 0 0 0 0 0 0 0 3 68 133 104 60 228 269 220 130 75 99 232 202 158 227 149 49 18 3 1 1 0 0 0 0
0 0 0 0 0 0 0 0 0 0 66 104 189 169 125 146 170 96 89 192 205 295 220 277 153 35 3 3 2 0 0 0 0
0 0 0 0 0 0 0 0 0 0 0 37 117 93 135 115 121 94 78 102 147 187 188 332 241 105 27 8 5 3 0 0 0
0 0 0 0 0 0 0 0 0 0 0 0 13 109 98 126 142 101 56 55 70 114 143 204 167 114 78 25 10 8 4 0 0
0 0 0 0 0 0 0 0 0 0 0 5 26 85 130 138 117 155 94 62 42 62 32 59 55 53 58 60 57 23 7 1 4
0 0 0 0 0 0 0 0 0 0 0 4 68 78 78 55 53 95 170 79 24 3 7 24 16 1 7 12 30 30 23 18 2
0 0 0 0 0 0 0 0 0 1 0 5 39 128 113 50 1 10 5 90 44 20 12 1 0 0 1 3 3 0 0 1 3
2 0 0 0 0 0 0 0 0 0 1 0 41 90 81 94 16 0 0 0 27 57 5 1 2 1 0 0 0 0 0 4 4
12 10 0 0 0 0 0 0 0 0 0 0 1 85 76 122 49 34 0 0 0 0 0 14 9 0 0 0 0 0 2 0 9

GFSFLT1_con_mlcape_228.txt.gz
CAPE
1133 994 824 958 788 888 795 810 623 673 285 29 0 0 0 345 0 0 0 0 0 0 5 0 2 11 3 8 11 20 0 2 6
584 778 985 1032 857 930 986 974 910 647 648 366 47 0 0 0 0 0 0 0 0 0 0 7 3 3 15 2 4 6 6 3 6
559 610 728 951 680 506 680 865 891 907 663 687 519 89 0 0 0 0 0 0 26 2 0 0 0 3 11 5 2 5 3 7 9
329 110 209 574 696 957 822 663 946 1016 903 831 731 637 240 0 0 0 0 0 12 16 11 3 1 3 6 2 3 2 1 6 5
0 0 0 0 3 344 467 788 854 722 1056 979 794 696 502 28 0 0 0 0 35 58 36 29 3 1 0 2 2 3 4 6 15
0 0 0 0 0 0 13 66 439 751 561 540 615 564 203 161 0 0 0 0 26 119 66 26 26 4 4 1 0 0 0 15 6
0 0 0 0 0 0 0 0 0 10 171 408 351 302 233 135 138 13 0 1 89 228 121 64 44 18 5 3 0 0 0 1 2
0 0 0 0 0 0 0 0 0 0 0 67 262 353 268 209 114 69 48 20 147 281 213 141 88 27 14 5 0 0 1 7 4
0 0 0 0 0 0 0 0 0 0 0 1 59 254 294 274 198 117 91 62 61 223 342 278 161 90 18 11 3 0 1 4 13
0 0 0 0 0 0 0 0 0 0 0 0 1 44 248 289 279 134 147 167 121 171 300 398 269 124 50 28 6 3 2 4 10
0 0 0 0 0 0 0 0 0 0 0 0 0 1 30 264 264 212 159 230 205 147 178 468 485 212 83 30 19 4 1 1 3
0 0 0 0 0 0 0 0 0 0 0 0 0 0 0 5 168 206 175 95 123 216 128 284 699 477 209 72 35 8 1 1 2
0 0 0 0 0 0 0 0 0 0 0 0 0 0 0 0 13 159 186 161 115 157 230 168 482 665 453 221 70 22 7 3 4
0 0 0 0 0 0 0 0 0 0 0 0 0 0 0 0 0 0 144 183 165 152 222 225 276 567 607 440 216 49 23 6 4
0 0 0 0 0 0 0 0 0 0 0 0 0 0 0 0 0 0 11 144 180 171 171 217 245 260 563 545 415 142 33 15 8
0 0 0 0 0 0 0 0 0 0 0 0 0 0 0 0 1 1 0 90 173 196 174 138 190 368 345 409 394 237 149 21 6
0 0 0 0 0 0 0 0 0 0 0 0 3 0 0 0 1 9 42 70 167 204 180 212 229 218 367 149 211 332 251 98 50
0 0 0 0 0 0 0 0 0 0 0 0 0 1 21 4 71 98 89 82 133 97 135 179 202 206 196 226 194 149 190 253 132
0 0 0 0 0 0 0 0 0 0 0 0 0 0 2 1 15 45 36 23 34 166 146 138 109 92 86 103 133 108 77 169 183
0 0 0 0 0 0 0 0 1 0 0 0 0 0 0 0 4 2 29 1 0 0 36 113 116 67 76 71 90 122 94 70 63